Regional Weather Roundup
Issued by NWS Grand Forks, ND

Home | Current Version | Previous Version | Text Only | Print | Product List | Glossary On
Versions: 1 2 3 4 5 6 7 8 9 10 11 12 13 14 15 16 17 18 19 20 21 22 23 24 25 26 27 28 29 30 31 32 33 34 35 36 37 38 39 40 41 42 43 44 45 46 47 48 49 50
000
ASUS43 KFGF 231710
RWRFGF
PRAIRIE TO PINES  WEATHER ROUNDUP
NATIONAL WEATHER SERVICE EASTERN NORTH DAKOTA/GRAND FORKS ND
1200 PM CDT SAT MAY 23 2015

 **SATELLITE DATA USED TO AUGMENT SKY COVER AT AUTOMATED STATIONS**
 *****  WEATHER ACROSS EASTERN NORTH DAKOTA  *****

CITY           SKY/WX    TMP DP  RH WIND       PRES   REMARKS
GRAND FORKS    MOSUNNY   72  46  39 S12       30.13S
GRAND FRKS AFB SUNNY     74  47  37 SW8       30.14R
GRAND FRKS NWS   N/A     70 N/A N/A SW18        N/A
DEVILS LAKE    SUNNY     70  41  35 SW9       30.14S
FARGO          SUNNY     70  46  42 S12       30.18F
WAHPETON ARPT  PTSUNNY   64  39  39 S15       30.21S
$$

 ***** WEATHER ACROSS CENTRAL AND WESTERN NORTH DAKOTA  *****

CITY           SKY/WX    TMP DP  RH WIND       PRES   REMARKS
BISMARCK       SUNNY     62  46  55 VRB6      30.15F
MINOT          SUNNY     70  36  28 VRB7      30.12F
JAMESTOWN      SUNNY     66  46  48 S13       30.16F
MINOT AFB      SUNNY     76  40  26 VRB1      30.11F
GARRISON         N/A     65  39  38 SE14      30.13F
WILLISTON      SUNNY     70  40  33 SE12G20   30.12S
DICKINSON      MOSUNNY   61  45  55 SE13G24   30.09S
HETTINGER      CLOUDY    54  44  69 SE17G23   30.12R
$$

 *****  OTHER AIRPORT OBSERVATIONS IN OUR AREA  *****

CITY           SKY/WX    TMP DP  RH WIND       PRES   REMARKS
WALHALLA         N/A     77  32  19 NE3       30.10F
GRAFTON AIRPOR FAIR      73  41  31 S6        30.13S
VALLEY CITY AR FAIR      66  45  45 S14G23    30.18S
CANDO          FAIR      73  41  31 SE6       30.13F
CAVALIER APRT  FAIR      75  34  22 S5        30.11S
GWINNER        NOT AVBL
SHEYENNE NWR     N/A     69  44  39 S10       29.95S
ROLLA            N/A     73  32  21 SW5       30.13S
 ***** THE ABOVE OBSERVATIONS ARE NON NWS ARE NOT QUALITY
       CONTROLLED AND MAY MIS-REPORT RAIN FOR SNOW...
$$

  *****  WEATHER ACROSS NORTHERN MINNESOTA  *****

CITY           SKY/WX    TMP DP  RH WIND       PRES   REMARKS
FLAG ISLAND    SUNNY     63  45  51 SE7       30.11F
WARROAD        SUNNY     75  43  31 S8        30.14S
ROSEAU         SUNNY     75  36  23 S3        30.13F
HALLOCK        SUNNY     73  41  31 S7        30.12S
THF RVR FALLS  SUNNY     70  45  40 SW12G17   30.16R
BAUDETTE       SUNNY     75  35  23 VRB6      30.14S
WASKISH        SUNNY     70  46  43 CALM      30.16S
CROOKSTON      SUNNY     72  46  40 SW12G22   30.16R
STEPHEN NDAWN    N/A     73  43  33 S9          N/A
GREENBUSH NDAW   N/A     73  43  33 S10         N/A
$$
  *****  WEATHER ACROSS CENTRAL AND WEST MINNESOTA  *****

CITY           SKY/WX    TMP DP  RH WIND       PRES   REMARKS
FOSSTON        SUNNY     70  45  40 SW14      30.19R
BEMIDJI        SUNNY     70  42  35 SW7       30.18R
PARK RAPIDS    SUNNY     72  42  34 SW14      30.20S
ELBOW LAKE     CLOUDY    65  43  45 SE10      30.22S
WADENA         SUNNY     68  43  40 SW10      30.22R
DETROIT LAKES  SUNNY     68  43  40 SW9       30.22S
MOORHEAD       SUNNY     70  45  40 S12       30.20S
FERGUS FALLS   SUNNY     70  43  37 S12G18    30.22S
MORRIS MN      PTSUNNY   66  45  45 SE10      30.21F
STAPLES        MOSUNNY   70  39  32 SW9G16    30.23R
$$
  *****  WEATHER ELSEWHERE ACROSS MINNESOTA  *****

CITY           SKY/WX    TMP DP  RH WIND       PRES   REMARKS
DULUTH         MOSUNNY   74  38  27 VRB7      30.20S
INTRNTL FALLS  SUNNY     76  31  19 W10       30.15S
ELY            SUNNY     73  34  23 NW12G20   30.17F
CLOQUET        SUNNY     73  30  20 SW9G17    30.20S
WHEATON        MOSUNNY   64  43  45 SE17      30.22F
BRAINERD       SUNNY     70  41  34 W10G21    30.22S
HIBBING        SUNNY     74  34  23 SW10      30.18F
ALEXANDRIA     PTSUNNY   63  42  46 S8        30.25S
SAINT CLOUD    CLOUDY    66  46  48 CALM      30.24F
MINNEAPOLIS    CLOUDY    67  43  41 N7        30.24S
$$

  *****  WEATHER ACROSS SOUTH DAKOTA  *****

CITY           SKY/WX    TMP DP  RH WIND       PRES   REMARKS
SIOUX FALLS    CLOUDY    62  50  64 SE14      30.17F
BROOKINGS      CLOUDY    63  45  51 SE15G22   30.19F
WATERTOWN      CLOUDY    63  45  51 SE15G22   30.18F
HURON          CLOUDY    62  50  64 SE10      30.14F
SISSETON         N/A     67  42  40 S16       30.18F
ABERDEEN       CLOUDY    63  45  51 S15       30.17F
MITCHELL       CLOUDY    64  50  60 SE15G23   30.15F
PIERRE         CLOUDY    53  50  89 SE14      30.11S
MOBRIDGE       CLOUDY    60  50  69 S14       30.11F
RAPID CITY     CLOUDY    52  45  77 SE9       30.07S
$$

  *****  SOME WEATHER IN NEARBY STATES *****

CITY           SKY/WX    TMP DP  RH WIND       PRES   REMARKS
GLASGOW MT     PTSUNNY   67  39  35 E17G25    30.07S
GREAT FALLS MT LGT RAIN  50  49  96 NW6       30.09R FOG
CHEYENNE WY    CLOUDY    52  44  74 SW12      30.01F
SCOTTSBLUFF NE CLOUDY    53  52  96 E10       30.03S FOG
OMAHA NE       CLOUDY    60  55  83 SE14      30.18F
DES MOINES IA  CLOUDY    68  49  50 S14       30.23F
DAVENPORT IA   SUNNY     76  43  30 S8        30.29S
CHICAGO IL     MOSUNNY   74  43  32 S10       30.30F
EAU CLAIRE WI  CLOUDY    69  46  43 VRB6      30.25R
LA CROSSE WI   CLOUDY    69  48  47 S6        30.26S
$$

  *****  SOME NATIONAL WEATHER *****

CITY           SKY/WX    TMP DP  RH WIND       PRES   REMARKS
LA GUARDIA NY  MOSUNNY   60  25  26 N9        30.40F
RALEIGH NC     MOSUNNY   73  48  41 E9        30.43F
ATLANTA GA     MOSUNNY   78  53  41 E9G18     30.37F
NEW ORLEANS LA PTSUNNY   85  66  53 E9        30.20F
OKLAHOMA CITY  FOG       66  64  93 SE21      30.03F VSB 1/2
ALBUQUERQUE NM MOSUNNY   63  29  27 VRB3      30.03F
SALT LAKE CITY CLOUDY    54  45  71 NW5       29.93S
LOS ANGELES CA PTSUNNY   64  52  64 VRB3      30.08F
BOISE ID       MOSUNNY   64  52  64 W12       29.90S
SEATTLE WA     CLOUDY    54  50  86 SW6       30.17S
$$

*** WEATHER ACROSS MANITOBA...SASKATCHEWAN AND ONTARIO ***
                ***ONTARIO***

CITY           SKY/WX    TMP DP  RH WIND       PRES   REMARKS
GERALDTON      MOSUNNY   73  43  33 SW12G24   29.99F
THUNDER BAY    MOSUNNY   81  37  21 W18G28    30.07F
SIOUX LOOKOUT  PTSUNNY   73  37  27 W16G24    30.05S
TORONTO        MOSUNNY   64  25  22 W8G23     30.37F
BIG TROUT LK   SUNNY     45  30  57 NW9       30.08S
PICKLE LAKE    PTSUNNY   64  41  42 W6        30.00F
DRYDEN         PTSUNNY   75  34  22 W20G31    30.07F
KENORA         MOSUNNY   75  39  27 MISG      30.11F
$$
                *** MANITOBA***

CITY           SKY/WX    TMP DP  RH WIND       PRES   REMARKS
BRANDON        MOSUNNY   77  37  24 W7G17     30.10S
DAUPHIN        SUNNY     81  36  19 W9        30.05S
ISLAND LAKE    MOSUNNY   50  36  57 N9        30.14R
PILOT MOUND      N/A     75  36  23 N3          N/A
THE PAS        MOSUNNY   59  39  47 N12       30.13R
THOMPSON       MOSUNNY   48  25  40 E5        30.21S
WINNIPEG       SUNNY     77  41  27 S9        30.09S
LYNN LAKE      SUNNY     52  27  37 NE8       30.23F
CHURCHILL      PTSUNNY   37  23  56 NW9       30.19S
GILLAM         MOSUNNY   43  25  49 W3        30.21
$$
                ***SASKATCHEWAN***

CITY           SKY/WX    TMP DP  RH WIND       PRES   REMARKS
ESTEVAN        NOT AVBL
KINDERSLEY     MOSUNNY   75  30  19 VRB6      30.11F
LLOYDMINSTER   MOSUNNY   77  27  15 S5        30.10S
PRINCE ALBERT  MOSUNNY   77  37  24 NE5       30.07S
REGINA         MOSUNNY   73  39  29 SW6       30.12F
YORKTON        SUNNY     77  34  20 W10       30.08F
N. BATTLEFORD  SUNNY     72  36  26 W6        30.12F
LA RONGE       MOSUNNY   59  41  51 NE12G20   30.18R
SASKATOON      PTSUNNY   73  36  25 VRB5      30.12S
SWIFT CURRENT  SUNNY     72  34  25 SE13G18   30.11S
$$
NOTE: THESE ARE AUTOMATED STATIONS WITH LIMITED QUALITY CONTROL
      "FAIR" INDICATES FEW OR NO CLOUDS BELOW 12,000 FEET WITH NO
      SIGNIFICANT WEATHER AND/OR OBSTRUCTIONS TO VISIBILITY.
      SKY/WX - SKY CONDITION AND SIGNIFICANT WEATHER.
      TMP - AIR TEMPERATURE.    DP   - DEWPOINT TEMPERATURE.
      RH  - RELATIVE HUMIDITY.  PRES - PRESSURE.
      HX  - HEAT INDEX.         WCI  - WIND CHILL INDEX.
$



USA.gov is the U.S. government's official web portal to all federal, state and local government web resources and services.